SICH 1

Satellite information

Favourite Embed

Satellite Type and Status

PAYLOADIN ORBIT

Key statistics

Satellite SICH 1 at a glance.

Uptime

10904

Days in orbit

Revolutions

≈ 14.9

Per day

Orbit

LEO

Low Earth Orbit

Inclination

82.5

Latest

Satellite identification and parameters

Extended collection of information and parameters for SICH 1.

Object identification

Identified? True

Debris? False

Object name: SICH 1

International designator: 1995-046A

Object number (NORAD): 23657

Object ID (CCSDS): 23657

Country: UKRAINE (UKR)

Current information (Y/N): Y

RCS size: LARGE

Orbital parameters

Period: 96.444 minutes

Inclination: 82.524 deg

SMA: 6966.41 km

Apoapsis: 602.407 km

Periapsis: 574.143 km

RAAN: 10.952 deg

Eccentricy: 0.0020286

Argument of periapsis: 45.7083 deg

Mean anomaly: 314.5797 deg

Mean motion: 14.93101078 rev/day

Mean motion (dot): 0.00001348 rev/day2

B* drag term: 0.00012645 1/REarth

Two-line elements (TLE)

Creation date: July 6, 2025, 6:05 p.m.

Reference frame: TEME

Reference center: EARTH

Epoch: July 6, 2025, 1:39 p.m. UTC

TLE line 0: 0 SICH 1

TLE line 1: 1 23657U 95046A 25187.56935233 .00001348 00000-0 12645-3 0 9993

TLE line 2: 2 23657 82.5240 10.9520 0020286 45.7083 314.5797 14.93101078614380

Live tracking on map

Real-time ground track for satellite SICH 1.

In-orbit conjunctions

There are no conjunctions computed for SICH 1, at the moment. Check back to stay up to date, as we update our databases every day.

Go to all conjunctions

Associated space launch

Ocean observation satellite

SICH 1 was lifted into orbit during the mission ‘Tsiklon-3 | Okean-O1 8’, on board a Tsiklon-3 space rocket.

The launch took place on Aug. 31, 1995, 6:49 a.m. from 32/2.

For more information about the launch, click the button.

Launch to space Tsiklon-3 | Okean-O1 8
Tsiklon-3 | Okean-O1 8

Agency: N/A

Status: Launch Successful

Launch date: Aug. 31, 1995, 6:49 a.m. UTC

Rocket: Tsiklon-3

Launch pad: 32/2

Location: Plesetsk Cosmodrome, Russian Federation

...

Latest news about this satellite

There are no fresh news available about this satellite. Check back as we update our databases every day.


Newsletter sign-up

Weekly statistics, charts and insights to help you stay on top of the space industry.